Location: Unspecified
(0.0000°N, 0.0000°E)
Time: 05:20:31
(UTC+00:00)

CZ-3C DEB - Visible Passes

Search period start: 14 February 2026 00:00
Search period end: 24 February 2026 00:00
Orbit: 506 x 35764 km, 20.4° (Epoch: 1 August)

Date Brightness Start Highest point End Pass type
(mag) Time Alt. Az. Time Alt. Az. Time Alt. Az.
14 Feb ? 19:08:24 10° WSW 20:46:48 57° W 04:59:09 10° E visible
15 Feb ? 15:57:12 10° WSW 20:18:24 79° NNE 01:53:56 10° ENE visible
16 Feb ? 12:53:34 10° SW 20:36:01 52° NE 22:39:39 10° ENE visible
17 Feb ? 21:25:01 10° W 22:41:04 24° W 01:19:11 10° W visible
18 Feb ? 17:52:34 10° WSW 19:30:15 74° W 03:47:33 10° E visible
19 Feb ? 14:45:08 10° SW 20:55:07 72° NNE 00:40:24 10° ENE visible
20 Feb ? 11:42:31 10° SSW 19:30:02 37° ENE 20:35:19 31° ENE visible
21 Feb ? 19:56:22 10° WSW 21:28:11 40° W 05:39:16 10° E visible
22 Feb ? 16:38:23 10° WSW 17:57:49 88° ESE 02:35:17 10° ENE visible
23 Feb ? 13:33:18 10° SW 20:57:05 64° NE 23:25:11 10° ENE visible
